Regional Weather Roundup
Issued by NWS

Home | Current Version | Previous Version | Graphics & Text | Print | Product List | Glossary On
Versions: 1 2 3 4 5 6 7 8 9 10 11 12 13 14 15 16 17 18 19 20 21 22 23 24 25 26 27 28 29 30 31 32 33 34 35 36 37 38 39 40 41 42 43 44 45 46 47 48 49
000
ASUS43 KDMX 211707
RWRIA

WEATHER ROUNDUP FOR IOWA
NATIONAL WEATHER SERVICE DES MOINES IA
1200 PM CDT THU AUG 21 2014

NOTE: "FAIR" INDICATES FEW OR NO CLOUDS BELOW 12,000 FEET WITH NO
SIGNIFICANT WEATHER AND/OR OBSTRUCTIONS TO VISIBILITY.

* - THESE STATIONS ARE NOT NWS STATIONS...THUS NOT UNDER NWS
QUALITY CONTROL.  THEY ALSO DO NOT REPORT WEATHER SUCH
AS PRECIPITATION OR FOG.

IAZ001>003-012>014-020>022-031>034-043>046-211800-
   NORTHWEST IOWA

CITY           SKY/WX    TMP DP  RH WIND       PRES   REMARKS
CARROLL *      PTSUNNY   79  72  78 S10       29.85S HX  82
CHEROKEE *     SUNNY     82  72  69 SW16      29.82S HX  87
DENISON *      MOSUNNY   82  72  69 SE5       29.82F HX  87
LE MARS *      SUNNY     82  70  65 SW12      29.80S HX  86
ORANGE CITY *  SUNNY     82  68  61 S10       29.80S HX  85
SHELDON *      SUNNY     81  72  74 S12       29.78F HX  84
SIOUX CITY     SUNNY     85  71  63 SW8       29.80S HX  90
SPENCER        MOSUNNY   83  71  67 S13       29.80S HX  87
STORM LAKE *   SUNNY     82  75  78 SW13G23   29.84S HX  89
$$

IAZ055>058-069>071-079>083-090>094-211800-
   SOUTHWEST IOWA

CITY           SKY/WX    TMP DP  RH WIND       PRES   REMARKS
ATLANTIC *     SUNNY     81  72  74 S13G18    29.85F HX  84
AUDUBON *      SUNNY     84  75  74 S8        29.87R HX  92
CLARINDA *     SUNNY     79  73  83 S7        29.88S HX  82
COUNCIL BLFS * SUNNY     81  73  78 SW8       29.83F HX  85
CRESTON *      SUNNY     81  73  78 S9        29.90S HX  85
HARLAN  *      MOSUNNY   81  72  74 S10       29.88S HX  84
LAMONI         CLOUDY    81  72  74 VRB7      29.91R HX  85
RED OAK *      SUNNY     79  72  78 S7        29.85F HX  82
SHENANDOAH *   SUNNY     77  72  83 S13       29.84F
$$

IAZ047>049-059>061-072>074-084-211800-
   CENTRAL IOWA

CITY           SKY/WX    TMP DP  RH WIND       PRES   REMARKS
AMES           LGT RAIN  80  74  81 S12       29.86F HX  85
ANKENY *       SUNNY     79  75  89 SE8       29.88F HX  82
CHARITON *     MOSUNNY   81  73  78 W6        29.92R HX  85
DES MOINES     CLOUDY    80  73  79 S7        29.88S HX  84
GRINNELL*      RAIN      75  72  88 E3        29.91F
KNOXVILLE *    CLOUDY    75  73  94 CALM      29.91S
MARSHALLTOWN   CLOUDY    76  72  87 SE10      29.86F
PELLA *        LGT RAIN  75  73  94 W5        29.94R
PERRY *          N/A     81  73  78 S12       29.87S HX  85
$$

IAZ004>006-015-016-023>025-035-036-211800-
   NORTH CENTRAL IOWA

CITY           SKY/WX    TMP DP  RH WIND       PRES   REMARKS
ALGONA *       SUNNY     82  73  74 S16       29.81F HX  88
CLARION *      SUNNY     81  73  78 S13       29.85R HX  85
ESTHERVILLE    PTSUNNY   79  72  79 MISG      29.78F HX  82
FORT DODGE *   CLOUDY    81  73  78 S8        29.84F HX  85
MASON CITY     CLOUDY    74  72  93 SE8       29.83F
FOREST CITY *  SUNNY     75  73  94 SE9       29.81F
IOWA FALLS *     N/A     75  72  88 S7        29.87S
$$

IAZ007>011-017>019-026>030-037>042-050>054-066-211800-
   NORTHEAST IOWA

CITY           SKY/WX    TMP DP  RH WIND       PRES   REMARKS
CEDAR RAPIDS   LGT RAIN  77  73  87 S6        29.92S
CHARLES CITY * SUNNY     73  72  94 S8G15     29.87S
CLINTON *      CLOUDY    79  73  83 SE12      29.95F HX  82
DECORAH *      CLOUDY    73  72  94 S12G24    29.85F
DUBUQUE        CLOUDY    74  72  93 S6        29.92F FOG
MONTICELLO *   MOSUNNY   77  73  88 S6        29.92S
OELWEIN *      CLOUDY    75  73  94 S8        29.90F
WATERLOO       LGT RAIN  76  73  91 S8        29.87F
$$

IAZ064-065-067-068-078-211800-
   EAST CENTRAL IOWA

CITY           SKY/WX    TMP DP  RH WIND       PRES   REMARKS
DAVENPORT      CLOUDY    79  71  76 SE6       29.93F HX  82
IOWA CITY      LGT RAIN  80  72  76 W6        29.94R HX  84
MT. PLEASANT * CLOUDY    84  72  65 SW7       29.91F HX  89
MUSCATINE *    PTSUNNY   82  72  69 CALM      29.92R HX  87
QUAD CITIES    CLOUDY    80  72  76 SE6       29.92F HX  84
$$

IAZ062-063-075>077-085>089-095>099-211800-
   SOUTHEAST IOWA

CITY           SKY/WX    TMP DP  RH WIND       PRES   REMARKS
BURLINGTON     CLOUDY    85  75  72 S10       29.92F HX  93
FAIRFIELD *    MOSUNNY   82  73  74 SW6G14    29.92R HX  88
FORT MADISON * SUNNY     86  75  70 SW10G17   29.93S HX  95
KEOKUK *       SUNNY     84  75  74 SW13G18   29.92S HX  92
OSKALOOSA *    PTSUNNY   79  73  83 NW6       29.93R HX  82
CENTERVILLE *  SUNNY     84  75  74 S12       29.93R HX  92
OTTUMWA        PTSUNNY   81  72  74 W9        29.93R HX  85
WASHINGTON *   PTSUNNY   81  75  83 VRB6      29.92R HX  86
$$

ABBREVIATIONS USED IN REMARKS
   TC - TEMPERATURES IN CELSIUS
  WCI - WIND CHILL INDEX
   HX - HEAT INDEX
  VSB - VISIBILITY
$$



USA.gov is the U.S. government's official web portal to all federal, state and local government web resources and services.